RH
82 76 92 83 79 74 63 68 62 62 57 50 43 38 36 33 31 33 37 41 39 34 32 29 28 26 27
84 77 71 87 70 70 65 60 54 44 36 33 30 28 31 39 46 52 54 46 44 41 31 24 19 15 12
64 71 70 68 66 63 56 54 41 32 29 33 40 45 44 42 39 37 34 32 29 27 25 24 23 21 19
67 69 73 65 60 56 53 42 45 46 46 44 36 31 29 27 27 23 19 15 14 13 12 11 10 10 10
62 68 72 57 51 49 44 56 56 47 43 39 31 28 24 23 17 10 8 6 6 6 5 5 5 4 4
66 66 57 54 57 59 60 56 48 44 37 33 28 30 23 16 9 6 5 3 3 3 3 3 3 2 2
74 61 65 60 57 57 51 43 43 37 33 36 25 23 15 9 4 3 3 4 3 3 3 3 3 3 3
77 76 62 53 44 45 44 40 38 34 21 18 16 12 7 5 4 4 4 4 4 4 4 3 3 3 3
68 57 48 45 41 39 36 37 31 21 11 11 8 5 7 5 5 7 6 5 5 4 4 3 3 3 3
54 47 42 40 36 31 23 17 11 8 5 8 5 5 8 5 5 7 6 5 4 4 4 4 4 4 3
47 42 38 31 18 13 9 6 6 7 6 8 6 6 12 12 6 7 6 5 5 6 6 5 4 4 3
36 28 17 12 8 6 6 7 7 8 7 7 10 10 10 9 7 6 6 9 7 7 7 6 5 4 4
13 11 8 7 8 8 8 7 6 7 10 11 10 9 9 9 9 10 14 7 11 7 8 7 7 6 5
8 8 8 8 8 7 7 8 8 8 10 11 10 10 10 14 16 13 14 15 10 13 9 10 8 6 6
9 9 9 8 10 12 12 10 8 8 8 8 10 12 14 18 21 16 11 20 15 12 12 14 13 11 9
12 13 13 12 11 10 9 8 9 10 10 10 10 9 10 15 28 20 16 18 19 14 11 13 16 11 13
15 13 10 9 9 8 8 10 10 11 13 13 13 17 17 15 17 18 16 13 12 12 10 9 8 9 9
Wind_Speed
83 83 81 86 86 89 92 83 81 82 82 83 83 84 85 85 85 86 88 90 92 94 95 97 98 98 97
83 84 85 87 90 92 86 86 86 86 87 88 88 87 86 86 86 90 93 96 99 101 103 106 106 107 106
82 83 87 92 89 86 86 91 91 91 91 87 86 87 89 91 96 101 103 105 106 106 107 108 109 110 110
82 86 90 90 86 89 93 94 94 93 91 93 94 95 98 100 105 107 106 103 102 102 103 105 108 110 110
89 92 92 90 91 95 93 93 96 99 102 105 106 106 106 109 109 103 97 93 91 91 92 95 97 98 98
94 97 96 96 99 98 96 99 103 110 110 114 113 114 111 109 102 93 86 82 80 81 81 83 85 86 85
100 100 101 102 100 101 105 108 113 116 116 118 113 109 104 99 90 83 76 74 73 72 71 70 70 70 71
106 105 104 104 106 110 113 115 119 121 113 102 101 95 91 88 80 75 72 68 67 66 64 63 61 61 62
106 106 109 112 115 118 121 121 116 109 97 86 88 83 80 77 71 68 68 65 62 59 57 54 53 52 51
111 113 116 120 122 118 112 104 95 90 84 80 78 69 73 71 63 63 64 60 53 50 49 47 47 47 47
115 120 123 119 108 99 94 87 83 78 73 70 70 64 62 67 63 58 56 50 42 40 39 39 37 39 41
118 114 104 99 93 88 82 77 71 67 66 60 60 59 57 60 56 50 44 41 42 34 34 33 32 30 31
101 95 89 85 80 76 72 68 62 56 53 55 56 55 51 48 49 44 47 37 39 37 32 30 28 25 23
87 82 77 72 68 65 60 55 52 48 49 48 49 47 43 39 41 40 36 42 35 33 29 27 25 23 21
72 67 63 60 55 52 50 49 50 51 47 42 39 36 33 33 39 43 28 27 36 30 27 24 25 21 21
57 55 52 50 47 46 47 46 47 43 44 42 35 32 27 17 24 41 32 28 31 37 28 20 22 24 19
50 50 48 48 47 46 45 44 40 38 36 34 31 30 30 27 20 25 29 27 25 27 30 28 21 23 20
Wind_Direction
295 296 295 297 298 298 299 295 296 294 293 293 292 290 288 287 287 285 282 279 277 274 272 270 268 266 264
297 295 295 296 298 297 297 298 296 295 294 293 292 290 290 288 286 282 279 276 274 273 272 270 269 269 268
293 297 298 296 297 296 298 298 297 295 294 294 292 291 289 287 284 282 280 278 276 275 274 273 272 271 269
295 298 298 295 296 301 300 300 299 297 296 296 294 293 292 290 287 284 282 281 281 279 277 274 270 268 266
297 300 299 298 301 300 300 300 300 298 299 298 298 298 296 292 288 287 287 286 283 280 277 274 271 270 269
299 301 302 302 301 301 300 299 300 299 299 300 299 300 295 291 291 292 291 288 284 279 277 276 275 273 271
301 300 303 300 301 300 299 300 300 299 300 299 299 297 294 293 294 294 294 290 289 286 282 279 276 274 273
301 301 300 300 300 301 300 300 300 300 299 300 298 295 296 295 297 298 296 295 292 291 287 283 278 274 270
299 299 300 301 301 300 300 300 298 298 298 300 295 296 296 297 299 299 298 297 297 294 291 287 282 276 270
299 300 300 300 301 301 298 298 299 299 300 300 297 300 300 298 301 300 299 300 299 296 291 287 284 279 273
299 300 300 299 299 298 298 300 299 300 300 299 300 300 298 298 301 300 300 300 299 298 295 291 285 278 274
298 298 298 299 300 301 301 300 301 300 300 300 298 298 297 298 299 300 299 302 302 303 300 296 289 282 275
300 300 301 301 300 299 299 299 301 301 300 300 298 299 300 300 301 306 306 305 303 303 300 295 290 285 278
301 301 300 299 300 301 302 303 301 300 302 300 299 300 302 302 301 301 299 302 307 302 302 298 292 287 276
299 298 299 302 303 303 303 302 304 307 305 302 302 303 302 307 308 303 316 311 304 304 305 304 298 288 281
301 303 304 305 305 305 304 305 307 307 307 309 310 304 302 306 297 298 317 306 302 306 308 303 295 290 282
306 307 309 311 311 308 307 308 308 309 308 310 312 313 315 315 311 302 306 306 301 297 302 309 307 294 290